Temperature
9 7 7 7 7 9 8 8 7 7 8 7 7 7 7 8 7 7 8 8 8 9 9 9 9 9 9 9 9 9 9 9 9 8 8 8 8 8 8 8 8 8 8 8
7 7 8 8 8 8 8 7 7 7 7 7 6 6 7 7 7 8 8 8 8 8 9 8 8 8 8 8 8 8 8 8 8 8 8 8 8 8 8 8 8 8 8 8
8 8 8 8 8 8 7 7 7 7 7 7 6 7 7 7 7 8 8 8 8 8 8 8 8 8 8 8 8 8 8 8 8 8 8 7 7 7 7 7 8 7 7 7
7 8 8 8 8 8 7 7 7 7 6 5 6 6 6 6 6 7 7 8 8 8 8 8 8 8 8 8 8 8 8 8 8 7 7 7 7 7 7 7 7 7 7 7
7 8 8 8 8 8 7 7 7 7 6 5 5 5 6 6 6 7 7 8 8 8 8 8 8 7 7 7 7 7 7 7 7 7 7 7 7 7 7 7 7 7 7 7
7 8 8 8 8 7 7 6 6 5 5 6 6 5 6 5 6 7 7 8 8 8 8 8 7 7 7 7 7 7 7 7 7 7 7 7 6 7 6 6 6 6 6 6
7 7 7 8 7 7 7 6 6 6 5 6 5 5 6 6 6 6 7 7 8 7 7 7 7 7 7 7 7 7 7 7 6 6 6 6 6 6 6 6 6 6 6 6
7 7 7 7 7 6 6 7 7 7 6 5 5 5 6 6 6 7 7 7 7 7 7 7 7 7 7 7 7 6 6 6 6 6 6 6 6 6 6 6 6 6 6 6
6 7 7 7 7 7 6 5 6 5 5 5 5 5 5 6 6 6 6 6 7 7 7 7 7 7 7 7 7 6 6 6 6 6 6 6 5 6 6 6 6 6 6 6
6 6 6 6 7 7 6 5 4 5 7 6 6 5 6 7 6 6 5 6 7 7 7 7 7 6 6 6 6 6 6 5 5 5 5 5 5 5 5 5 5 5 5 5
6 6 6 6 6 6 5 5 5 4 5 6 6 7 6 6 6 5 5 6 7 7 7 7 6 6 6 6 6 6 6 5 5 5 5 5 5 5 5 5 5 5 5 5
4 4 4 5 6 6 5 5 4 5 5 4 4 6 7 6 5 5 6 7 7 7 7 7 6 6 6 6 6 6 6 5 5 5 5 5 5 5 5 5 5 5 5 5
4 4 5 6 6 5 5 5 4 4 4 3 4 6 6 5 5 6 6 7 7 7 7 6 6 6 6 6 6 6 5 5 5 5 5 5 5 5 5 5 5 4 4 4
5 4 5 6 6 5 4 4 4 4 4 3 4 5 6 6 5 5 6 7 7 7 6 6 6 6 6 5 5 5 5 5 5 5 5 5 5 5 5 5 4 4 4 4
4 3 3 4 4 4 4 4 4 4 4 4 5 4 6 5 5 5 6 6 6 6 6 6 6 5 5 5 5 5 5 5 5 5 5 5 4 4 4 4 4 4 4 4
2 3 3 3 4 3 4 4 4 4 4 4 4 5 5 5 5 5 5 5 5 5 5 5 5 5 5 5 5 5 5 5 5 5 4 4 4 4 4 4 4 4 3 3
1 2 2 2 3 3 3 4 4 3 3 3 4 5 4 4 4 5 5 5 5 5 5 5 5 5 5 5 5 5 5 5 4 4 4 4 4 4 4 3 3 3 3 3
1 1 1 1 2 3 5 4 4 4 3 3 3 4 4 4 5 5 6 6 6 6 5 5 5 5 5 5 5 5 4 4 4 4 4 4 3 3 3 3 3 3 3 3
1 1 1 1 2 3 3 4 3 3 3 3 3 3 3 4 4 4 6 6 6 6 6 5 5 5 5 5 5 4 4 4 4 4 3 3 3 3 3 3 3 2 2 2
1 1 1 1 2 3 4 4 3 4 4 3 3 3 3 2 2 3 5 5 5 5 5 5 5 5 5 4 4 4 4 4 3 3 3 3 3 2 2 2 2 2 2 2
0 0 1 1 2 2 3 3 3 4 4 4 3 3 3 2 4 5 5 5 5 5 5 4 4 4 4 4 4 4 3 3 3 3 3 2 2 2 2 2 2 2 2 2
0 0 0 1 1 2 2 2 3 3 4 4 4 4 4 4 4 4 5 5 4 4 4 4 4 4 4 3 3 3 3 3 3 2 2 2 2 2 2 2 1 1 1 1
0 1 1 2 3 3 3 3 4 4 4 4 4 4 4 4 4 4 4 4 4 3 4 3 3 3 3 3 3 2 2 2 2 2 2 2 2 1 1 1 1 1 1 0
-1 -0 0 -0 1 2 3 3 3 4 4 4 4 4 4 3 3 4 3 3 3 3 3 3 3 2 2 2 2 2 2 1 1 1 1 1 1 1 1 0 0 0 0 -0
-0 -1 -1 -1 0 1 2 3 3 3 3 4 4 3 3 3 3 3 3 3 3 2 2 2 2 2 2 1 1 1 1 1 1 0 0 0 0 0 -0 -0 -0 -0 -0 -1
-1 -1 -1 0 1 1 2 3 3 3 3 3 3 3 3 3 3 3 2 2 2 2 2 1 1 1 1 1 1 1 0 0 0 -0 -0 -0 -0 -0 -1 -1 -1 -1 -1 -1
Wind_Speed
3 3 2 5 6 3 3 3 5 6 3 2 6 10 11 6 4 5 6 5 6 7 6 5 4 3 3 3 2 2 2 2 2 1 1 1 1 1 1 1 1 1 2 4
3 2 5 3 3 2 3 3 4 5 2 2 6 10 9 6 5 5 6 6 6 6 6 6 5 3 2 2 2 2 2 2 3 2 2 1 1 0 1 1 1 1 2 3
5 3 1 4 3 2 3 4 4 4 4 3 4 8 6 5 4 4 5 5 4 5 5 6 5 4 3 2 2 2 2 2 3 2 2 2 2 2 1 1 1 1 2 3
3 3 2 2 3 4 4 4 4 2 1 4 1 5 7 5 5 5 5 5 5 5 4 4 5 4 3 3 2 1 1 2 2 3 4 4 2 1 1 1 1 1 1 2
3 2 3 4 4 5 4 1 1 1 2 3 1 3 8 3 5 7 6 6 5 4 4 4 4 4 3 2 1 1 0 1 2 2 4 4 2 1 1 1 1 1 1 2
3 2 3 4 1 3 3 3 4 4 3 3 4 4 7 5 6 5 5 5 5 4 4 4 4 3 3 2 1 1 1 1 2 2 2 3 3 3 3 2 2 1 1 1
3 2 2 2 2 2 3 4 3 4 2 6 2 4 9 7 6 6 6 6 4 3 2 3 4 4 3 2 1 1 1 1 1 2 2 2 3 3 4 3 3 2 2 1
2 5 3 3 4 5 3 5 5 4 5 5 2 6 8 6 4 4 4 4 3 2 3 3 4 3 3 2 1 1 1 1 1 2 2 2 2 2 2 2 2 3 3 2
4 5 1 1 1 6 5 3 3 4 1 4 6 7 8 3 3 3 3 3 3 3 4 4 4 3 3 2 2 2 2 2 2 2 2 2 2 2 2 2 2 2 2 2
4 3 3 1 2 1 4 6 4 3 3 5 6 6 5 5 5 5 4 5 5 4 4 4 3 3 2 2 2 1 2 3 3 2 2 2 2 3 3 3 2 2 2 2
2 3 3 1 6 6 4 3 4 3 3 4 5 7 6 7 6 6 6 5 5 5 4 4 3 2 2 2 1 1 1 2 2 2 2 2 2 2 2 2 3 2 2 2
1 2 3 6 4 4 6 6 6 4 5 4 4 8 4 5 5 4 6 6 5 4 4 3 3 2 2 2 2 1 1 2 2 2 2 2 2 2 1 1 2 2 2 2
2 2 2 4 2 0 3 4 4 3 2 5 5 9 3 2 3 4 5 6 5 4 3 3 2 2 2 2 2 1 1 2 1 2 2 2 2 2 2 1 1 2 2 2
1 4 6 8 6 3 5 5 4 4 4 6 10 12 10 8 7 6 5 5 5 5 4 3 3 2 2 2 2 1 1 1 1 1 2 2 2 2 2 2 2 2 2 2
3 5 7 9 7 6 9 10 9 10 10 10 11 12 14 10 9 7 5 4 4 4 4 4 3 3 2 2 2 1 1 1 1 1 1 1 1 1 1 1 1 1 2 2
1 3 3 7 6 7 10 12 13 14 11 12 13 16 12 8 5 5 5 4 5 6 5 5 4 3 3 3 2 1 1 1 1 1 1 1 1 1 1 1 1 1 1 1
4 4 3 5 4 4 10 11 13 9 8 9 13 14 7 5 6 7 6 6 7 7 6 5 5 5 4 4 3 3 2 1 1 1 1 1 1 1 1 1 1 1 1 1
6 5 3 3 1 8 8 3 7 9 8 8 8 8 6 8 7 5 5 6 7 7 6 6 5 4 4 3 2 2 1 1 1 1 1 1 1 1 1 1 1 2 2 2
8 7 4 3 5 9 8 4 4 6 8 7 10 9 7 3 2 4 5 6 7 7 5 5 4 3 3 2 2 2 1 1 0 1 1 1 1 1 1 2 2 2 2 2
2 5 5 5 5 7 6 3 2 3 6 4 5 7 4 2 1 6 4 3 4 3 2 2 1 1 1 1 2 2 1 1 1 2 2 1 1 2 2 3 2 2 2 3
1 3 6 8 8 8 6 2 3 3 6 5 4 5 3 5 6 4 2 2 2 1 1 2 2 2 2 1 2 2 1 2 2 1 1 0 1 2 2 2 1 1 2 2
7 5 6 5 7 9 2 3 5 6 5 4 4 4 4 5 4 3 2 2 1 0 1 2 2 1 1 2 2 2 2 2 1 0 0 1 1 1 1 1 2 1 1 1
8 8 6 8 8 5 3 5 6 4 5 5 5 5 4 4 4 3 2 1 1 1 1 1 2 1 0 1 2 2 2 1 0 1 1 1 2 2 1 1 1 1 1 1
5 4 4 7 9 7 7 7 7 6 6 6 5 5 4 4 4 3 2 1 1 1 1 1 2 1 1 1 1 1 1 0 1 0 1 1 1 2 2 2 1 1 2 2
7 4 5 9 9 8 8 8 7 6 5 4 4 4 4 3 3 3 2 2 2 1 0 1 1 1 1 1 0 0 0 1 1 0 1 1 1 1 1 2 2 2 3 3
6 7 8 10 8 7 9 8 6 6 6 5 4 4 4 4 4 3 3 2 1 1 0 0 0 0 0 0 0 1 0 1 1 1 1 1 1 1 1 2 3 4 4 5
Wind_Direction
49 78 199 213 199 190 167 198 254 264 272 263 254 264 270 269 258 266 274 280 289 289 289 307 316 313 312 313 304 280 238 203 159 154 151 147 170 156 135 89 87 98 129 128
51 251 235 188 167 156 174 225 260 282 295 257 277 274 266 250 238 239 253 267 278 296 316 327 329 322 311 303 295 274 235 197 181 179 179 150 132 125 136 66 78 125 125 120
190 227 175 149 153 167 223 209 231 257 326 335 316 297 266 263 244 253 257 261 272 283 299 311 320 312 313 306 291 276 241 200 185 159 129 102 80 64 56 78 103 81 122 123
226 250 169 176 207 175 250 228 215 240 325 297 16 297 281 271 287 274 272 277 281 285 292 298 307 308 302 287 293 291 229 181 174 162 155 151 149 161 226 211 185 138 123 126
244 208 179 207 222 182 216 198 187 211 184 298 259 237 284 295 274 269 266 270 280 284 285 292 297 286 287 290 294 282 175 167 160 159 164 161 151 149 142 139 137 135 126 132
250 253 207 201 167 162 148 67 54 54 80 282 229 200 279 243 235 259 265 272 274 284 290 294 300 306 301 308 312 298 179 176 161 157 155 163 162 153 146 150 162 162 157 151
304 273 239 148 104 63 98 93 18 346 334 255 206 213 252 249 236 234 251 262 270 272 280 295 303 311 308 316 310 283 183 169 166 158 158 164 164 162 169 175 180 179 173 178
234 275 233 191 180 173 182 159 170 223 246 281 270 240 254 257 262 251 247 252 263 277 282 283 287 284 288 287 277 242 232 210 189 185 184 180 175 171 177 173 173 188 186 182
198 253 325 224 195 147 151 193 174 152 214 274 269 276 296 259 277 271 263 263 262 269 282 289 297 289 288 278 255 219 210 220 218 217 202 185 185 188 177 170 161 181 180 171
174 240 272 284 108 41 166 152 119 150 212 264 283 269 256 259 259 265 266 266 270 280 293 300 296 293 291 281 276 241 206 208 216 211 205 202 200 194 173 164 169 176 182 169
161 190 286 288 201 192 150 161 165 165 192 203 269 270 227 223 227 239 252 255 257 263 274 281 290 291 305 317 306 282 235 220 210 206 203 196 205 190 168 171 174 172 176 165
163 149 246 248 246 207 194 194 169 185 229 214 238 268 259 223 231 236 260 265 261 257 264 270 282 306 327 324 311 279 246 231 226 206 189 197 190 161 164 186 179 163 170 174
148 143 315 323 322 200 223 205 189 166 169 198 219 264 286 283 281 271 269 272 268 262 264 269 274 278 286 299 304 280 251 240 228 193 182 185 177 159 177 199 196 180 174 175
174 193 211 227 244 222 255 246 208 177 209 234 235 259 281 278 272 277 275 268 262 254 249 251 259 267 276 287 296 287 271 246 213 185 180 184 193 193 199 196 189 194 183 180
139 225 241 256 265 249 249 245 223 221 222 229 248 251 264 266 258 262 260 262 259 257 251 241 243 254 272 291 302 308 287 265 197 177 179 200 206 193 187 186 202 207 195 201
166 227 251 272 261 257 267 252 234 235 236 241 258 267 267 265 252 256 255 246 249 252 249 246 245 244 252 260 270 282 292 275 190 177 192 205 197 201 199 209 210 204 213 213
200 187 217 265 282 301 265 236 221 222 214 208 238 255 272 259 243 236 239 240 243 245 238 234 235 233 236 241 238 241 241 236 179 199 209 206 206 223 240 241 225 229 230 226
190 197 209 249 275 243 248 226 210 223 238 225 241 262 255 248 252 240 233 231 244 239 230 230 231 237 237 227 225 226 202 148 176 225 244 238 219 235 264 253 249 255 249 238
197 187 194 202 238 268 286 262 200 214 255 240 242 263 277 287 328 288 253 233 233 230 226 223 219 224 215 206 191 158 148 136 148 248 261 258 238 234 244 257 263 270 261 261
185 193 195 204 226 244 259 294 259 167 268 274 235 253 269 111 255 273 278 257 249 242 222 211 191 174 181 203 155 144 162 174 244 253 261 271 250 232 242 250 256 264 259 260
148 198 215 224 238 257 270 320 96 180 262 302 245 242 203 199 231 269 287 275 251 236 217 167 157 168 197 177 151 161 188 236 255 262 277 307 278 259 259 256 260 270 274 284
194 198 211 208 231 250 242 121 192 243 293 296 277 252 236 252 277 289 282 273 235 171 147 150 151 183 193 155 153 174 242 268 297 350 353 328 315 305 307 281 293 286 266 286
213 208 207 211 232 268 221 231 254 273 279 277 269 266 257 266 274 272 270 260 244 189 173 155 153 154 183 166 166 197 258 299 40 38 348 331 336 332 321 280 278 290 273 268
247 240 228 256 264 269 265 272 279 273 270 277 270 265 245 253 257 253 246 250 225 183 171 146 135 146 237 270 210 214 240 207 124 129 317 328 331 331 334 314 287 275 279 278
231 211 239 260 275 294 278 261 268 280 285 287 287 270 241 231 241 232 232 229 225 236 236 159 164 189 229 242 271 288 218 132 135 234 288 305 302 297 313 311 295 280 262 255
222 216 227 249 251 251 269 271 267 274 279 274 278 281 261 219 226 221 223 227 214 213 189 140 157 191 244 256 339 339 323 156 173 255 281 282 289 293 292 309 323 316 296 299
Height
1511 1516 1518 1517 1517 1516 1518 1521 1522 1519 1515 1516 1514 1511 1506 1504 1503 1502 1500 1499 1498 1496 1495 1494 1492 1490 1489 1489 1488 1487 1487 1487 1488 1488 1489 1489 1490 1491 1492 1494 1496 1497 1498 1499
1515 1516 1513 1513 1515 1517 1519 1521 1520 1517 1515 1515 1513 1509 1502 1500 1500 1498 1497 1496 1495 1494 1492 1491 1490 1488 1487 1486 1485 1485 1484 1485 1485 1485 1486 1487 1488 1489 1490 1491 1492 1494 1496 1497
1513 1512 1510 1512 1515 1517 1518 1519 1518 1517 1516 1515 1515 1508 1501 1497 1496 1495 1494 1493 1493 1492 1490 1489 1488 1486 1485 1484 1483 1482 1482 1482 1483 1483 1484 1485 1486 1487 1487 1488 1489 1491 1493 1495
1512 1510 1511 1512 1513 1514 1516 1514 1515 1516 1519 1521 1518 1518 1501 1497 1495 1492 1491 1490 1489 1489 1488 1487 1486 1484 1483 1482 1482 1481 1481 1481 1481 1481 1482 1482 1483 1484 1485 1486 1487 1488 1490 1492
1511 1509 1509 1511 1510 1511 1512 1512 1514 1515 1518 1521 1520 1521 1505 1498 1495 1490 1488 1487 1487 1486 1486 1485 1484 1483 1482 1481 1480 1480 1480 1479 1479 1480 1480 1480 1481 1482 1483 1484 1485 1486 1488 1490
1510 1508 1507 1507 1508 1509 1511 1513 1516 1519 1521 1520 1516 1520 1507 1498 1491 1487 1485 1485 1485 1484 1484 1483 1482 1481 1480 1479 1479 1479 1478 1478 1478 1478 1478 1478 1479 1480 1481 1481 1482 1483 1485 1487
1509 1507 1506 1506 1508 1510 1511 1517 1523 1521 1525 1517 1513 1515 1502 1488 1485 1484 1483 1483 1482 1482 1482 1481 1480 1479 1478 1477 1477 1477 1477 1476 1476 1476 1476 1477 1478 1478 1479 1479 1480 1481 1483 1485
1512 1512 1506 1505 1506 1510 1512 1513 1519 1519 1520 1518 1514 1510 1493 1484 1482 1481 1481 1481 1480 1480 1480 1479 1478 1477 1476 1476 1476 1475 1475 1475 1475 1475 1475 1476 1476 1477 1478 1478 1479 1480 1480 1482
1512 1509 1505 1504 1504 1506 1511 1514 1513 1520 1520 1520 1512 1504 1490 1481 1480 1480 1479 1479 1478 1478 1478 1477 1476 1475 1475 1474 1474 1473 1473 1473 1474 1474 1474 1474 1475 1475 1476 1477 1478 1478 1479 1480
1508 1510 1506 1504 1504 1505 1507 1511 1518 1517 1514 1512 1505 1502 1493 1481 1479 1478 1478 1476 1476 1476 1476 1475 1474 1473 1473 1472 1472 1472 1472 1472 1472 1472 1473 1473 1473 1474 1475 1475 1476 1477 1477 1478
1507 1510 1508 1506 1504 1504 1508 1510 1511 1516 1514 1512 1509 1495 1480 1477 1475 1476 1475 1474 1474 1474 1474 1473 1472 1472 1471 1471 1471 1470 1471 1471 1471 1471 1471 1472 1472 1472 1473 1474 1474 1475 1475 1476
1507 1511 1511 1505 1501 1500 1502 1504 1508 1510 1510 1514 1511 1494 1473 1473 1472 1473 1473 1472 1473 1472 1472 1472 1471 1470 1470 1469 1469 1469 1469 1469 1469 1469 1470 1470 1470 1470 1471 1471 1472 1473 1473 1474
1507 1510 1509 1503 1504 1503 1502 1501 1503 1506 1509 1513 1511 1490 1473 1471 1471 1471 1471 1470 1470 1470 1470 1470 1469 1468 1468 1467 1467 1467 1467 1467 1468 1468 1468 1468 1468 1469 1469 1469 1470 1470 1471 1472
1503 1507 1507 1503 1497 1499 1500 1499 1501 1504 1507 1505 1497 1484 1474 1471 1470 1469 1469 1468 1468 1468 1467 1467 1466 1466 1466 1466 1465 1465 1465 1466 1466 1466 1466 1466 1466 1467 1467 1467 1468 1468 1469 1470
1501 1504 1502 1499 1497 1497 1495 1494 1496 1497 1495 1494 1484 1481 1470 1468 1467 1466 1466 1466 1466 1465 1464 1464 1464 1464 1464 1463 1463 1463 1463 1464 1464 1464 1464 1464 1465 1465 1465 1465 1465 1466 1466 1467
1502 1503 1501 1499 1495 1494 1492 1488 1488 1487 1486 1484 1480 1473 1465 1465 1464 1463 1463 1463 1462 1461 1461 1461 1462 1461 1461 1461 1461 1461 1461 1461 1461 1461 1462 1462 1463 1463 1463 1463 1463 1463 1464 1464
1502 1503 1502 1499 1494 1491 1488 1478 1478 1478 1476 1475 1473 1465 1462 1462 1461 1459 1459 1459 1458 1458 1458 1458 1458 1458 1459 1459 1459 1459 1459 1459 1459 1459 1459 1460 1460 1461 1461 1461 1461 1460 1460 1461
1499 1500 1501 1500 1496 1494 1472 1467 1467 1468 1467 1467 1463 1460 1458 1457 1456 1455 1456 1456 1455 1454 1454 1455 1455 1456 1456 1456 1456 1457 1457 1457 1457 1457 1457 1458 1458 1458 1458 1458 1458 1458 1458 1458
1490 1494 1498 1498 1494 1481 1471 1465 1465 1467 1463 1459 1459 1456 1455 1455 1454 1452 1452 1452 1452 1452 1452 1452 1453 1453 1453 1454 1454 1454 1454 1455 1455 1455 1455 1455 1455 1455 1455 1455 1455 1455 1455 1455
1488 1489 1493 1493 1487 1477 1465 1460 1458 1460 1460 1453 1453 1452 1453 1453 1456 1451 1448 1449 1449 1449 1449 1450 1450 1450 1451 1451 1452 1452 1452 1452 1452 1452 1452 1453 1453 1452 1452 1452 1452 1452 1452 1451
1490 1490 1489 1487 1481 1470 1463 1459 1459 1464 1456 1450 1448 1448 1450 1450 1449 1447 1446 1446 1446 1446 1447 1447 1448 1448 1448 1449 1449 1449 1449 1449 1450 1450 1450 1450 1450 1450 1450 1449 1449 1449 1448 1448
1483 1485 1484 1482 1479 1469 1458 1459 1460 1455 1450 1448 1446 1445 1446 1445 1445 1444 1443 1443 1443 1443 1444 1445 1445 1445 1446 1447 1447 1446 1447 1447 1447 1448 1448 1447 1447 1447 1447 1446 1446 1445 1445 1444
1475 1471 1469 1468 1462 1455 1454 1453 1452 1451 1449 1446 1445 1443 1443 1442 1441 1441 1441 1441 1441 1442 1442 1442 1443 1443 1444 1444 1445 1444 1445 1445 1445 1445 1445 1445 1445 1444 1444 1444 1443 1442 1442 1441
1468 1465 1465 1463 1455 1452 1451 1449 1448 1447 1446 1444 1443 1441 1440 1439 1439 1438 1439 1439 1439 1439 1440 1440 1440 1441 1441 1442 1442 1442 1442 1442 1442 1442 1442 1442 1442 1441 1441 1441 1440 1440 1439 1438
1461 1462 1461 1458 1452 1450 1446 1445 1444 1443 1441 1440 1439 1438 1437 1436 1436 1436 1436 1436 1437 1437 1438 1438 1438 1438 1439 1439 1439 1440 1440 1439 1439 1439 1439 1439 1439 1438 1438 1438 1437 1437 1436 1436
1454 1455 1456 1450 1447 1447 1442 1440 1440 1439 1437 1436 1435 1434 1433 1433 1433 1433 1433 1434 1434 1435 1435 1435 1436 1436 1436 1437 1437 1437 1437 1437 1436 1436 1436 1436 1435 1435 1435 1434 1434 1433 1433 1432